Time,TemperatureF,DewpointF,PressureIn,WindDirection,WindDirectionDegrees,WindSpeedMPH,WindSpeedGustMPH,Humidity,HourlyPrecipIn,Conditions,Clouds,dailyrainin,SoftwareType,DateUTC
2013-03-16 00:02:00,41.0,20.6,23.25,WSW,248,2.2,2.2,44,0.00,,,0.00,WUHU216HW,2013-03-16 06:02:00,
2013-03-16 00:07:00,41.2,21.3,23.25,WSW,248,1.3,2.2,45,0.00,,,0.00,WUHU216HW,2013-03-16 06:07:00,
2013-03-16 00:12:00,41.0,21.2,23.25,West,270,1.1,2.2,45,0.00,,,0.00,WUHU216HW,2013-03-16 06:12:00,
2013-03-16 00:17:00,41.0,21.2,23.25,West,270,1.1,2.0,45,0.00,,,0.00,WUHU216HW,2013-03-16 06:17:00,
2013-03-16 00:22:00,41.2,21.3,23.25,West,270,1.1,1.8,45,0.00,,,0.00,WUHU216HW,2013-03-16 06:22:00,
2013-03-16 00:27:00,41.4,21.0,23.25,West,270,1.6,1.8,44,0.00,,,0.00,WUHU216HW,2013-03-16 06:27:00,
2013-03-16 00:32:00,41.6,21.2,23.25,West,270,1.1,1.6,44,0.00,,,0.00,WUHU216HW,2013-03-16 06:32:00,
2013-03-16 00:37:00,41.6,21.2,23.25,West,270,1.1,1.3,44,0.00,,,0.00,WUHU216HW,2013-03-16 06:37:00,
2013-03-16 00:42:00,41.6,21.2,23.24,West,270,0.9,1.3,44,0.00,,,0.00,WUHU216HW,2013-03-16 06:42:00,
2013-03-16 00:47:00,41.6,21.2,23.24,West,270,1.1,1.3,44,0.00,,,0.00,WUHU216HW,2013-03-16 06:47:00,
2013-03-16 00:52:00,41.6,20.6,23.24,West,270,1.1,1.3,43,0.00,,,0.00,WUHU216HW,2013-03-16 06:52:00,
2013-03-16 00:57:00,41.6,21.2,23.24,West,270,1.6,1.6,44,0.00,,,0.00,WUHU216HW,2013-03-16 06:57:00,
2013-03-16 01:03:00,41.6,20.6,23.24,WSW,248,1.1,1.8,43,0.00,,,0.00,WUHU216HW,2013-03-16 07:03:00,
2013-03-16 01:08:00,41.4,21.0,23.24,West,270,1.3,1.8,44,0.00,,,0.00,WUHU216HW,2013-03-16 07:08:00,
2013-03-16 01:13:00,41.2,20.8,23.24,West,270,1.1,1.8,44,0.00,,,0.00,WUHU216HW,2013-03-16 07:13:00,
2013-03-16 01:18:00,41.0,20.6,23.24,West,270,1.3,1.8,44,0.00,,,0.00,WUHU216HW,2013-03-16 07:18:00,
2013-03-16 01:23:00,41.0,20.6,23.24,West,270,1.8,1.8,44,0.00,,,0.00,WUHU216HW,2013-03-16 07:23:00,
2013-03-16 01:28:00,41.0,20.6,23.23,West,270,1.1,1.8,44,0.00,,,0.00,WUHU216HW,2013-03-16 07:28:00,
2013-03-16 01:33:00,41.2,20.8,23.23,West,270,1.1,1.8,44,0.00,,,0.00,WUHU216HW,2013-03-16 07:33:00,
2013-03-16 01:38:00,41.4,21.0,23.23,WSW,248,1.1,1.6,44,0.00,,,0.00,WUHU216HW,2013-03-16 07:38:00,
2013-03-16 01:43:00,41.4,20.4,23.23,WSW,248,1.3,1.8,43,0.00,,,0.00,WUHU216HW,2013-03-16 07:43:00,
2013-03-16 01:48:00,41.2,20.3,23.23,WSW,248,1.6,1.8,43,0.00,,,0.00,WUHU216HW,2013-03-16 07:48:00,
2013-03-16 01:53:00,41.2,20.3,23.23,WSW,248,1.3,1.6,43,0.00,,,0.00,WUHU216HW,2013-03-16 07:53:00,
2013-03-16 01:58:00,41.0,20.6,23.23,WSW,248,1.1,2.0,44,0.00,,,0.00,WUHU216HW,2013-03-16 07:58:00,
2013-03-16 02:03:00,40.7,20.4,23.22,SW,225,1.3,2.0,44,0.00,,,0.00,WUHU216HW,2013-03-16 08:03:00,
2013-03-16 02:08:00,40.3,20.5,23.22,WSW,248,1.6,2.0,45,0.00,,,0.00,WUHU216HW,2013-03-16 08:08:00,
2013-03-16 02:13:00,40.0,20.2,23.22,West,270,0.0,2.0,45,0.00,,,0.00,WUHU216HW,2013-03-16 08:13:00,
2013-03-16 02:18:00,39.8,20.0,23.23,West,270,0.0,0.9,45,0.00,,,0.00,WUHU216HW,2013-03-16 08:18:00,
2013-03-16 02:23:00,39.6,20.3,23.23,WSW,248,0.0,1.3,46,0.00,,,0.00,WUHU216HW,2013-03-16 08:23:00,
2013-03-16 02:28:00,39.4,19.7,23.23,WSW,248,0.0,1.3,45,0.00,,,0.00,WUHU216HW,2013-03-16 08:28:00,
2013-03-16 02:34:00,39.2,20.6,23.23,WSW,248,1.1,1.3,47,0.00,,,0.00,WUHU216HW,2013-03-16 08:34:00,
2013-03-16 02:39:00,38.9,20.8,23.23,SW,225,1.1,1.3,48,0.00,,,0.00,WUHU216HW,2013-03-16 08:39:00,
2013-03-16 02:44:00,38.5,21.5,23.23,WSW,248,1.8,2.0,50,0.00,,,0.00,WUHU216HW,2013-03-16 08:44:00,
2013-03-16 02:49:00,38.3,20.8,23.23,WSW,248,0.0,2.0,49,0.00,,,0.00,WUHU216HW,2013-03-16 08:49:00,
2013-03-16 02:54:00,38.2,20.6,23.23,SSW,203,1.8,1.8,49,0.00,,,0.00,WUHU216HW,2013-03-16 08:54:00,
2013-03-16 02:59:00,38.2,21.6,23.22,West,270,0.7,2.0,51,0.00,,,0.00,WUHU216HW,2013-03-16 08:59:00,
2013-03-16 03:04:00,38.0,21.0,23.22,SW,225,1.6,2.0,50,0.00,,,0.00,WUHU216HW,2013-03-16 09:04:00,
2013-03-16 03:09:00,37.8,21.7,23.22,SW,225,1.1,2.2,52,0.00,,,0.00,WUHU216HW,2013-03-16 09:09:00,
2013-03-16 03:14:00,37.8,21.2,23.22,WSW,248,1.1,2.2,51,0.00,,,0.00,WUHU216HW,2013-03-16 09:14:00,
2013-03-16 03:19:00,37.8,21.7,23.22,SW,225,1.8,2.0,52,0.00,,,0.00,WUHU216HW,2013-03-16 09:19:00,
2013-03-16 03:24:00,37.6,21.5,23.22,WSW,248,1.3,2.5,52,0.00,,,0.00,WUHU216HW,2013-03-16 09:24:00,
2013-03-16 03:29:00,37.4,21.4,23.22,WSW,248,1.3,2.5,52,0.00,,,0.00,WUHU216HW,2013-03-16 09:29:00,
2013-03-16 03:34:00,37.6,21.5,23.22,WSW,248,1.8,1.8,52,0.00,,,0.00,WUHU216HW,2013-03-16 09:34:00,
2013-03-16 03:39:00,37.6,21.5,23.21,SW,225,1.3,1.8,52,0.00,,,0.00,WUHU216HW,2013-03-16 09:39:00,
2013-03-16 03:44:00,37.6,21.2,23.21,West,270,0.4,1.3,51,0.00,,,0.00,WUHU216HW,2013-03-16 09:44:00,
2013-03-16 03:49:00,37.4,21.0,23.21,WSW,248,0.9,1.1,51,0.00,,,0.00,WUHU216HW,2013-03-16 09:49:00,
2013-03-16 03:54:00,37.4,21.4,23.21,WSW,248,1.1,1.1,52,0.00,,,0.00,WUHU216HW,2013-03-16 09:54:00,
2013-03-16 04:00:00,37.1,21.5,23.21,WSW,248,1.1,1.6,53,0.00,,,0.00,WUHU216HW,2013-03-16 10:00:00,
2013-03-16 04:05:00,37.1,21.5,23.21,WSW,248,1.3,1.6,53,0.00,,,0.00,WUHU216HW,2013-03-16 10:05:00,
2013-03-16 04:10:00,37.1,21.5,23.21,West,270,1.1,2.0,53,0.00,,,0.00,WUHU216HW,2013-03-16 10:10:00,
2013-03-16 04:15:00,37.1,21.1,23.21,West,270,1.8,2.5,52,0.00,,,0.00,WUHU216HW,2013-03-16 10:15:00,
2013-03-16 04:20:00,37.1,21.5,23.21,West,270,1.6,2.5,53,0.00,,,0.00,WUHU216HW,2013-03-16 10:20:00,
2013-03-16 04:25:00,37.1,21.5,23.21,WSW,248,1.1,2.2,53,0.00,,,0.00,WUHU216HW,2013-03-16 10:25:00,
2013-03-16 04:30:00,37.1,21.1,23.20,West,270,0.9,2.2,52,0.00,,,0.00,WUHU216HW,2013-03-16 10:30:00,
2013-03-16 04:35:00,37.1,21.5,23.20,WSW,248,1.3,2.2,53,0.00,,,0.00,WUHU216HW,2013-03-16 10:35:00,
2013-03-16 04:40:00,37.1,21.1,23.20,WSW,248,1.1,1.3,52,0.00,,,0.00,WUHU216HW,2013-03-16 10:40:00,
2013-03-16 04:45:00,36.9,20.9,23.20,WSW,248,1.3,1.3,52,0.00,,,0.00,WUHU216HW,2013-03-16 10:45:00,
2013-03-16 04:50:00,36.9,21.3,23.20,WSW,248,1.6,1.6,53,0.00,,,0.00,WUHU216HW,2013-03-16 10:50:00,
2013-03-16 04:55:00,36.9,21.3,23.20,WSW,248,1.1,1.8,53,0.00,,,0.00,WUHU216HW,2013-03-16 10:55:00,
2013-03-16 05:01:00,36.9,21.3,23.20,West,270,0.7,1.8,53,0.00,,,0.00,WUHU216HW,2013-03-16 11:01:00,
2013-03-16 05:06:00,37.4,21.4,23.20,WNW,293,1.1,1.1,52,0.00,,,0.00,WUHU216HW,2013-03-16 11:06:00,
2013-03-16 05:11:00,37.8,21.2,23.20,West,270,0.7,1.1,51,0.00,,,0.00,WUHU216HW,2013-03-16 11:11:00,
2013-03-16 05:16:00,38.2,21.6,23.20,West,270,0.7,1.1,51,0.00,,,0.00,WUHU216HW,2013-03-16 11:16:00,
2013-03-16 05:21:00,38.3,21.8,23.20,WNW,293,1.3,1.6,51,0.00,,,0.00,WUHU216HW,2013-03-16 11:21:00,
2013-03-16 05:27:00,38.5,21.5,23.20,West,270,1.8,1.8,50,0.00,,,0.00,WUHU216HW,2013-03-16 11:27:00,
2013-03-16 05:32:00,38.5,21.5,23.20,WSW,248,0.9,1.8,50,0.00,,,0.00,WUHU216HW,2013-03-16 11:32:00,
2013-03-16 05:37:00,38.5,22.0,23.21,West,270,1.3,1.6,51,0.00,,,0.00,WUHU216HW,2013-03-16 11:37:00,
2013-03-16 05:42:00,38.3,21.8,23.21,West,270,0.9,1.8,51,0.00,,,0.00,WUHU216HW,2013-03-16 11:42:00,
2013-03-16 05:47:00,38.3,22.2,23.21,West,270,1.3,1.8,52,0.00,,,0.00,WUHU216HW,2013-03-16 11:47:00,
2013-03-16 05:52:00,38.3,22.6,23.21,WNW,293,1.3,1.8,53,0.00,,,0.00,WUHU216HW,2013-03-16 11:52:00,
2013-03-16 05:57:00,38.3,22.2,23.21,West,270,1.8,1.8,52,0.00,,,0.00,WUHU216HW,2013-03-16 11:57:00,
2013-03-16 06:02:00,38.3,22.6,23.21,West,270,1.8,1.8,53,0.00,,,0.00,WUHU216HW,2013-03-16 12:02:00,
2013-03-16 06:07:00,38.2,22.5,23.21,West,270,1.3,2.5,53,0.00,,,0.00,WUHU216HW,2013-03-16 12:07:00,
2013-03-16 06:12:00,37.8,22.1,23.21,WNW,293,2.0,2.5,53,0.00,,,0.00,WUHU216HW,2013-03-16 12:12:00,
2013-03-16 06:17:00,37.8,22.6,23.21,West,270,0.9,2.0,54,0.00,,,0.00,WUHU216HW,2013-03-16 12:17:00,
2013-03-16 06:22:00,37.6,23.3,23.21,West,270,1.8,1.8,56,0.00,,,0.00,WUHU216HW,2013-03-16 12:22:00,
2013-03-16 06:28:00,37.4,23.1,23.21,West,270,1.1,2.5,56,0.00,,,0.00,WUHU216HW,2013-03-16 12:28:00,
2013-03-16 06:33:00,37.4,23.6,23.21,West,270,0.9,2.5,57,0.00,,,0.00,WUHU216HW,2013-03-16 12:33:00,
2013-03-16 06:38:00,37.6,23.7,23.21,WNW,293,0.7,1.8,57,0.00,,,0.00,WUHU216HW,2013-03-16 12:38:00,
2013-03-16 06:43:00,37.6,23.7,23.21,WNW,293,1.1,1.8,57,0.00,,,0.00,WUHU216HW,2013-03-16 12:43:00,
2013-03-16 06:48:00,37.6,23.7,23.21,WNW,293,0.0,2.5,57,0.00,,,0.00,WUHU216HW,2013-03-16 12:48:00,
2013-03-16 06:53:00,37.6,23.7,23.21,WNW,293,1.8,2.5,57,0.00,,,0.00,WUHU216HW,2013-03-16 12:53:00,
2013-03-16 06:58:00,37.6,23.3,23.21,West,270,1.8,2.2,56,0.00,,,0.00,WUHU216HW,2013-03-16 12:58:00,
2013-03-16 07:03:00,37.8,23.4,23.21,West,270,1.8,1.8,56,0.00,,,0.00,WUHU216HW,2013-03-16 13:03:00,
2013-03-16 07:08:00,37.8,23.4,23.21,West,270,0.9,1.8,56,0.00,,,0.00,WUHU216HW,2013-03-16 13:08:00,
2013-03-16 07:14:00,37.8,23.4,23.21,WNW,293,1.8,1.8,56,0.00,,,0.00,WUHU216HW,2013-03-16 13:14:00,
2013-03-16 07:19:00,37.8,23.4,23.21,WNW,293,0.9,1.8,56,0.00,,,0.00,WUHU216HW,2013-03-16 13:19:00,
2013-03-16 07:24:00,37.8,23.4,23.20,West,270,0.0,1.1,56,0.00,,,0.00,WUHU216HW,2013-03-16 13:24:00,
2013-03-16 07:29:00,37.8,23.4,23.20,WSW,248,1.1,1.1,56,0.00,,,0.00,WUHU216HW,2013-03-16 13:29:00,
2013-03-16 07:34:00,37.8,23.4,23.21,WNW,293,0.7,1.1,56,0.00,,,0.00,WUHU216HW,2013-03-16 13:34:00,
2013-03-16 07:39:00,37.8,23.4,23.21,SSE,158,0.4,1.1,56,0.00,,,0.00,WUHU216HW,2013-03-16 13:39:00,
2013-03-16 07:44:00,37.8,23.4,23.20,WNW,293,0.0,1.1,56,0.00,,,0.00,WUHU216HW,2013-03-16 13:44:00,
2013-03-16 07:49:00,37.6,23.3,23.21,West,270,0.2,1.3,56,0.00,,,0.00,WUHU216HW,2013-03-16 13:49:00,
2013-03-16 07:54:00,37.6,23.3,23.21,SW,225,0.7,1.6,56,0.00,,,0.00,WUHU216HW,2013-03-16 13:54:00,
2013-03-16 07:59:00,37.6,23.3,23.21,WNW,293,0.4,2.5,56,0.00,,,0.00,WUHU216HW,2013-03-16 13:59:00,
2013-03-16 08:04:00,37.6,23.7,23.21,WNW,293,1.1,2.5,57,0.00,,,0.00,WUHU216HW,2013-03-16 14:04:00,
2013-03-16 08:09:00,37.8,23.9,23.20,West,270,0.0,1.1,57,0.00,,,0.00,WUHU216HW,2013-03-16 14:09:00,
2013-03-16 08:14:00,37.8,23.4,23.20,WNW,293,1.1,1.1,56,0.00,,,0.00,WUHU216HW,2013-03-16 14:14:00,
2013-03-16 08:19:00,37.8,23.9,23.20,WNW,293,0.4,1.8,57,0.00,,,0.00,WUHU216HW,2013-03-16 14:19:00,
2013-03-16 08:24:00,38.2,24.2,23.21,West,270,0.4,1.8,57,0.00,,,0.00,WUHU216HW,2013-03-16 14:24:00,
2013-03-16 08:29:00,38.5,24.1,23.21,West,270,1.1,1.3,56,0.00,,,0.00,WUHU216HW,2013-03-16 14:29:00,
2013-03-16 08:34:00,38.5,24.1,23.21,WSW,248,1.8,1.8,56,0.00,,,0.00,WUHU216HW,2013-03-16 14:34:00,
2013-03-16 08:39:00,38.7,24.2,23.21,WSW,248,0.2,1.8,56,0.00,,,0.00,WUHU216HW,2013-03-16 14:39:00,
2013-03-16 08:44:00,39.1,24.1,23.21,West,270,1.3,2.5,55,0.00,,,0.00,WUHU216HW,2013-03-16 14:44:00,
2013-03-16 08:49:00,39.4,24.5,23.21,West,270,3.4,3.4,55,0.00,,,0.00,WUHU216HW,2013-03-16 14:49:00,
2013-03-16 08:55:00,40.0,24.6,23.21,WSW,248,2.5,3.4,54,0.00,,,0.00,WUHU216HW,2013-03-16 14:55:00,
2013-03-16 09:00:00,40.0,24.6,23.21,West,270,1.3,4.0,54,0.00,,,0.00,WUHU216HW,2013-03-16 15:00:00,
2013-03-16 09:05:00,40.3,24.8,23.22,SW,225,1.3,4.3,54,0.00,,,0.00,WUHU216HW,2013-03-16 15:05:00,
2013-03-16 09:10:00,40.5,25.0,23.22,West,270,1.8,4.3,54,0.00,,,0.00,WUHU216HW,2013-03-16 15:10:00,
2013-03-16 09:15:00,40.5,24.6,23.21,SW,225,1.6,2.9,53,0.00,,,0.00,WUHU216HW,2013-03-16 15:15:00,
2013-03-16 09:20:00,40.7,24.8,23.22,WSW,248,1.1,2.9,53,0.00,,,0.00,WUHU216HW,2013-03-16 15:20:00,
2013-03-16 09:25:00,41.0,25.1,23.22,SW,225,0.4,4.0,53,0.00,,,0.00,WUHU216HW,2013-03-16 15:25:00,
2013-03-16 09:30:00,41.4,25.5,23.22,SW,225,2.7,4.0,53,0.00,,,0.00,WUHU216HW,2013-03-16 15:30:00,
2013-03-16 09:35:00,41.4,25.0,23.22,NNW,338,1.8,2.7,52,0.00,,,0.00,WUHU216HW,2013-03-16 15:35:00,
2013-03-16 09:40:00,41.6,25.2,23.22,WSW,248,2.0,2.5,52,0.00,,,0.00,WUHU216HW,2013-03-16 15:40:00,
2013-03-16 09:45:00,41.8,25.4,23.22,West,270,1.3,2.7,52,0.00,,,0.00,WUHU216HW,2013-03-16 15:45:00,
2013-03-16 09:50:00,41.9,25.6,23.22,WNW,293,0.7,5.1,52,0.00,,,0.00,WUHU216HW,2013-03-16 15:50:00,
2013-03-16 09:55:00,42.1,25.8,23.22,West,270,1.1,5.1,52,0.00,,,0.00,WUHU216HW,2013-03-16 15:55:00,
2013-03-16 10:00:00,42.1,25.8,23.23,West,270,0.7,4.0,52,0.00,,,0.00,WUHU216HW,2013-03-16 16:00:00,
2013-03-16 10:05:00,42.1,25.8,23.23,SW,225,0.9,3.4,52,0.00,,,0.00,WUHU216HW,2013-03-16 16:05:00,
2013-03-16 10:11:00,42.1,25.8,23.23,WSW,248,3.8,5.8,52,0.00,,,0.00,WUHU216HW,2013-03-16 16:11:00,
2013-03-16 10:16:00,42.1,25.8,23.22,West,270,1.6,4.3,52,0.00,,,0.00,WUHU216HW,2013-03-16 16:16:00,
2013-03-16 10:21:00,42.1,25.8,23.23,West,270,3.4,3.6,52,0.00,,,0.00,WUHU216HW,2013-03-16 16:21:00,
2013-03-16 10:26:00,42.1,25.8,23.23,West,270,2.9,5.8,52,0.00,,,0.00,WUHU216HW,2013-03-16 16:26:00,
2013-03-16 10:31:00,42.1,25.8,23.23,WSW,248,7.4,7.4,52,0.00,,,0.00,WUHU216HW,2013-03-16 16:31:00,
2013-03-16 10:36:00,41.9,25.6,23.23,West,270,4.3,7.4,52,0.00,,,0.00,WUHU216HW,2013-03-16 16:36:00,
2013-03-16 10:41:00,42.1,25.8,23.23,WSW,248,3.4,4.9,52,0.00,,,0.00,WUHU216HW,2013-03-16 16:41:00,
2013-03-16 10:46:00,42.1,25.8,23.23,WSW,248,3.4,3.4,52,0.00,,,0.00,WUHU216HW,2013-03-16 16:46:00,
2013-03-16 11:00:00,42.3,26.4,23.23,West,270,2.5,2.5,53,0.00,,,0.00,WUHU216HW,2013-03-16 17:00:00,
2013-03-16 11:05:00,42.5,26.6,23.23,WNW,293,0.2,4.0,53,0.00,,,0.00,WUHU216HW,2013-03-16 17:05:00,
2013-03-16 11:10:00,42.8,26.8,23.22,WNW,293,1.6,4.0,53,0.00,,,0.00,WUHU216HW,2013-03-16 17:10:00,
2013-03-16 11:15:00,42.8,26.8,23.23,WNW,293,3.8,3.8,53,0.00,,,0.00,WUHU216HW,2013-03-16 17:15:00,
2013-03-16 11:20:00,42.8,26.8,23.23,West,270,0.7,4.5,53,0.00,,,0.00,WUHU216HW,2013-03-16 17:20:00,
2013-03-16 11:25:00,42.8,26.8,23.23,West,270,3.4,4.5,53,0.00,,,0.00,WUHU216HW,2013-03-16 17:25:00,
2013-03-16 11:30:00,42.8,26.8,23.23,West,270,5.4,5.4,53,0.00,,,0.00,WUHU216HW,2013-03-16 17:30:00,
2013-03-16 11:35:00,43.0,27.0,23.23,WSW,248,2.0,5.4,53,0.00,,,0.00,WUHU216HW,2013-03-16 17:35:00,
2013-03-16 11:40:00,43.2,27.2,23.23,NNW,338,0.0,3.6,53,0.00,,,0.00,WUHU216HW,2013-03-16 17:40:00,
2013-03-16 11:45:00,43.4,27.4,23.23,West,270,2.0,4.7,53,0.00,,,0.00,WUHU216HW,2013-03-16 17:45:00,
2013-03-16 11:50:00,43.4,27.4,23.23,SW,225,2.9,4.7,53,0.00,,,0.00,WUHU216HW,2013-03-16 17:50:00,
2013-03-16 11:55:00,43.6,27.1,23.23,West,270,2.5,4.5,52,0.00,,,0.00,WUHU216HW,2013-03-16 17:55:00,
2013-03-16 12:00:00,43.6,27.1,23.23,NW,315,1.8,4.5,52,0.00,,,0.00,WUHU216HW,2013-03-16 18:00:00,
2013-03-16 12:05:00,43.6,26.6,23.23,NW,315,3.4,4.0,51,0.00,,,0.00,WUHU216HW,2013-03-16 18:05:00,
2013-03-16 12:10:00,43.6,26.6,23.23,West,270,1.1,4.3,51,0.00,,,0.00,WUHU216HW,2013-03-16 18:10:00,
2013-03-16 12:16:00,43.6,26.6,23.23,WSW,248,2.2,5.4,51,0.00,,,0.00,WUHU216HW,2013-03-16 18:16:00,
2013-03-16 12:21:00,43.7,26.8,23.23,WSW,248,2.9,5.4,51,0.00,,,0.00,WUHU216HW,2013-03-16 18:21:00,
2013-03-16 12:26:00,43.9,27.0,23.23,SSW,203,4.7,4.7,51,0.00,,,0.00,WUHU216HW,2013-03-16 18:26:00,
2013-03-16 12:31:00,44.1,26.2,23.23,SSW,203,4.5,6.0,49,0.00,,,0.00,WUHU216HW,2013-03-16 18:31:00,
2013-03-16 12:36:00,43.9,26.0,23.22,WNW,293,4.7,6.0,49,0.00,,,0.00,WUHU216HW,2013-03-16 18:36:00,
2013-03-16 12:41:00,43.9,26.0,23.22,WNW,293,4.7,4.7,49,0.00,,,0.00,WUHU216HW,2013-03-16 18:41:00,
2013-03-16 13:00:00,43.0,24.7,23.22,West,270,2.0,2.0,48,0.00,,,0.00,WUHU216HW,2013-03-16 19:00:00,
2013-03-16 13:05:00,43.0,24.1,23.22,West,270,4.3,4.3,47,0.00,,,0.00,WUHU216HW,2013-03-16 19:05:00,
2013-03-16 13:10:00,43.0,23.6,23.22,SSW,203,6.3,6.3,46,0.00,,,0.00,WUHU216HW,2013-03-16 19:10:00,
2013-03-16 13:15:00,43.0,22.5,23.22,WSW,248,3.8,6.3,44,0.00,,,0.00,WUHU216HW,2013-03-16 19:15:00,
2013-03-16 13:20:00,43.2,23.8,23.22,NW,315,4.7,5.8,46,0.00,,,0.00,WUHU216HW,2013-03-16 19:20:00,
2013-03-16 13:25:00,43.6,23.0,23.22,WNW,293,4.7,6.9,44,0.00,,,0.00,WUHU216HW,2013-03-16 19:25:00,
2013-03-16 13:30:00,43.6,23.0,23.22,NW,315,2.0,6.9,44,0.00,,,0.00,WUHU216HW,2013-03-16 19:30:00,
2013-03-16 13:35:00,43.6,22.4,23.22,West,270,4.0,6.3,43,0.00,,,0.00,WUHU216HW,2013-03-16 19:35:00,
2013-03-16 13:40:00,43.6,21.3,23.22,SSW,203,5.4,6.9,41,0.00,,,0.00,WUHU216HW,2013-03-16 19:40:00,
2013-03-16 13:45:00,43.6,22.4,23.22,WSW,248,5.4,6.9,43,0.00,,,0.00,WUHU216HW,2013-03-16 19:45:00,
2013-03-16 13:50:00,43.6,22.4,23.21,SW,225,1.6,6.3,43,0.00,,,0.00,WUHU216HW,2013-03-16 19:50:00,
2013-03-16 13:56:00,43.6,22.4,23.21,SW,225,6.0,6.3,43,0.00,,,0.00,WUHU216HW,2013-03-16 19:56:00,
2013-03-16 14:01:00,43.6,20.2,23.21,WSW,248,7.8,7.8,39,0.00,,,0.00,WUHU216HW,2013-03-16 20:01:00,
2013-03-16 14:06:00,43.7,21.5,23.21,WNW,293,3.6,7.8,41,0.00,,,0.00,WUHU216HW,2013-03-16 20:06:00,
2013-03-16 14:11:00,43.7,19.0,23.21,West,270,2.9,7.8,37,0.00,,,0.00,WUHU216HW,2013-03-16 20:11:00,
2013-03-16 14:16:00,43.7,19.6,23.21,SE,135,4.0,7.6,38,0.00,,,0.00,WUHU216HW,2013-03-16 20:16:00,
2013-03-16 14:21:00,43.7,19.6,23.21,WSW,248,6.3,7.6,38,0.00,,,0.00,WUHU216HW,2013-03-16 20:21:00,
2013-03-16 14:26:00,43.7,20.4,23.21,SW,225,4.7,6.3,39,0.00,,,0.00,WUHU216HW,2013-03-16 20:26:00,
2013-03-16 14:32:00,43.9,20.4,23.21,West,270,3.1,4.7,39,0.00,,,0.00,WUHU216HW,2013-03-16 20:32:00,
2013-03-16 14:37:00,44.3,20.2,23.21,SSE,158,4.7,6.5,38,0.00,,,0.00,WUHU216HW,2013-03-16 20:37:00,
2013-03-16 14:42:00,44.5,21.0,23.21,WSW,248,4.9,6.5,39,0.00,,,0.00,WUHU216HW,2013-03-16 20:42:00,
2013-03-16 14:47:00,44.3,21.4,23.20,South,180,5.4,10.5,40,0.00,,,0.00,WUHU216HW,2013-03-16 20:47:00,
2013-03-16 14:52:00,44.1,22.4,23.20,SSW,203,6.0,8.1,42,0.00,,,0.00,WUHU216HW,2013-03-16 20:52:00,
2013-03-16 14:57:00,44.1,21.3,23.19,West,270,6.9,8.1,40,0.00,,,0.00,WUHU216HW,2013-03-16 20:57:00,
2013-03-16 15:02:00,44.1,21.3,23.19,WNW,293,4.9,6.9,40,0.00,,,0.00,WUHU216HW,2013-03-16 21:02:00,
2013-03-16 15:07:00,44.1,21.3,23.19,WNW,293,2.7,4.9,40,0.00,,,0.00,WUHU216HW,2013-03-16 21:07:00,
2013-03-16 15:12:00,44.3,21.4,23.19,SW,225,6.3,6.5,40,0.00,,,0.00,WUHU216HW,2013-03-16 21:12:00,
2013-03-16 15:17:00,44.3,21.4,23.19,West,270,2.5,6.5,40,0.00,,,0.00,WUHU216HW,2013-03-16 21:17:00,
2013-03-16 15:23:00,44.5,21.6,23.19,NW,315,4.0,4.7,40,0.00,,,0.00,WUHU216HW,2013-03-16 21:23:00,
2013-03-16 15:28:00,44.3,21.4,23.19,WNW,293,2.9,5.4,40,0.00,,,0.00,WUHU216HW,2013-03-16 21:28:00,
2013-03-16 15:33:00,44.3,22.5,23.19,South,180,2.5,5.4,42,0.00,,,0.00,WUHU216HW,2013-03-16 21:33:00,
2013-03-16 15:38:00,44.5,22.7,23.18,WNW,293,2.5,4.0,42,0.00,,,0.00,WUHU216HW,2013-03-16 21:38:00,
2013-03-16 15:43:00,44.5,22.7,23.19,East,90,1.1,4.3,42,0.00,,,0.00,WUHU216HW,2013-03-16 21:43:00,
2013-03-16 15:48:00,44.5,22.1,23.19,West,270,2.0,4.3,41,0.00,,,0.00,WUHU216HW,2013-03-16 21:48:00,
2013-03-16 15:53:00,44.5,22.7,23.18,NW,315,2.5,4.3,42,0.00,,,0.00,WUHU216HW,2013-03-16 21:53:00,
2013-03-16 15:58:00,44.5,22.7,23.18,NW,315,0.7,5.8,42,0.00,,,0.00,WUHU216HW,2013-03-16 21:58:00,
2013-03-16 16:03:00,44.5,22.1,23.18,NNE,23,4.0,5.8,41,0.00,,,0.00,WUHU216HW,2013-03-16 22:03:00,
2013-03-16 16:08:00,44.6,22.9,23.18,West,270,2.2,5.1,42,0.00,,,0.00,WUHU216HW,2013-03-16 22:08:00,
2013-03-16 16:13:00,44.6,22.9,23.18,West,270,0.2,5.1,42,0.00,,,0.00,WUHU216HW,2013-03-16 22:13:00,
2013-03-16 16:19:00,44.6,22.3,23.18,WNW,293,4.0,4.0,41,0.00,,,0.00,WUHU216HW,2013-03-16 22:19:00,
2013-03-16 16:24:00,44.8,22.5,23.18,SSW,203,0.4,4.0,41,0.00,,,0.00,WUHU216HW,2013-03-16 22:24:00,
2013-03-16 16:29:00,45.0,22.2,23.18,West,270,0.9,4.0,40,0.00,,,0.00,WUHU216HW,2013-03-16 22:29:00,
2013-03-16 16:34:00,44.8,22.0,23.18,WSW,248,0.7,3.4,40,0.00,,,0.00,WUHU216HW,2013-03-16 22:34:00,
2013-03-16 16:39:00,44.6,21.2,23.17,WSW,248,3.8,3.8,39,0.00,,,0.00,WUHU216HW,2013-03-16 22:39:00,
2013-03-16 16:44:00,44.6,21.2,23.18,West,270,1.8,5.4,39,0.00,,,0.00,WUHU216HW,2013-03-16 22:44:00,
2013-03-16 16:49:00,44.6,20.4,23.18,WNW,293,2.2,5.4,38,0.00,,,0.00,WUHU216HW,2013-03-16 22:49:00,
2013-03-16 16:54:00,44.8,20.6,23.18,WNW,293,4.0,4.7,38,0.00,,,0.00,WUHU216HW,2013-03-16 22:54:00,
2013-03-16 16:59:00,45.2,20.3,23.18,West,270,3.4,4.7,37,0.00,,,0.00,WUHU216HW,2013-03-16 22:59:00,
2013-03-16 17:04:00,45.4,20.4,23.17,SSW,203,1.1,4.7,37,0.00,,,0.00,WUHU216HW,2013-03-16 23:04:00,
2013-03-16 17:09:00,45.4,20.4,23.18,West,270,3.4,4.7,37,0.00,,,0.00,WUHU216HW,2013-03-16 23:09:00,
2013-03-16 17:14:00,44.8,20.6,23.18,WNW,293,4.0,4.0,38,0.00,,,0.00,WUHU216HW,2013-03-16 23:14:00,
2013-03-16 17:19:00,44.3,20.2,23.18,SW,225,5.8,5.8,38,0.00,,,0.00,WUHU216HW,2013-03-16 23:19:00,
2013-03-16 17:24:00,43.9,19.2,23.18,NNW,338,2.7,5.8,37,0.00,,,0.00,WUHU216HW,2013-03-16 23:24:00,
2013-03-16 17:29:00,43.6,18.8,23.18,WNW,293,4.3,4.7,37,0.00,,,0.00,WUHU216HW,2013-03-16 23:29:00,
2013-03-16 17:34:00,43.2,19.2,23.18,SW,225,1.3,6.3,38,0.00,,,0.00,WUHU216HW,2013-03-16 23:34:00,
2013-03-16 17:40:00,43.0,19.6,23.18,West,270,1.8,6.3,39,0.00,,,0.00,WUHU216HW,2013-03-16 23:40:00,
2013-03-16 17:45:00,42.8,19.5,23.18,WNW,293,6.5,6.5,39,0.00,,,0.00,WUHU216HW,2013-03-16 23:45:00,
2013-03-16 17:50:00,42.7,19.4,23.18,SW,225,2.5,6.5,39,0.00,,,0.00,WUHU216HW,2013-03-16 23:50:00,
2013-03-16 17:55:00,42.3,19.0,23.18,South,180,2.7,4.9,39,0.00,,,0.00,WUHU216HW,2013-03-16 23:55:00,
2013-03-16 18:00:00,42.1,18.8,23.17,WSW,248,2.5,4.9,39,0.00,,,0.00,WUHU216HW,2013-03-17 00:00:00,
2013-03-16 18:05:00,41.9,19.4,23.17,SW,225,3.4,4.0,40,0.00,,,0.00,WUHU216HW,2013-03-17 00:05:00,
2013-03-16 18:10:00,41.8,19.2,23.17,WSW,248,3.4,3.4,40,0.00,,,0.00,WUHU216HW,2013-03-17 00:10:00,
2013-03-16 18:15:00,41.6,19.0,23.17,SSW,203,3.1,3.4,40,0.00,,,0.00,WUHU216HW,2013-03-17 00:15:00,
2013-03-16 18:20:00,41.4,18.9,23.17,SSE,158,3.4,3.4,40,0.00,,,0.00,WUHU216HW,2013-03-17 00:20:00,
2013-03-16 18:25:00,41.4,19.4,23.17,SW,225,0.2,3.4,41,0.00,,,0.00,WUHU216HW,2013-03-17 00:25:00,
2013-03-16 18:30:00,41.2,19.7,23.17,SW,225,1.8,2.5,42,0.00,,,0.00,WUHU216HW,2013-03-17 00:30:00,
2013-03-16 18:35:00,41.0,19.6,23.17,WSW,248,0.4,2.5,42,0.00,,,0.00,WUHU216HW,2013-03-17 00:35:00,
2013-03-16 18:40:00,40.9,20.0,23.16,WSW,248,0.7,1.6,43,0.00,,,0.00,WUHU216HW,2013-03-17 00:40:00,
2013-03-16 18:45:00,40.9,20.0,23.16,West,270,0.0,1.3,43,0.00,,,0.00,WUHU216HW,2013-03-17 00:45:00,
2013-03-16 18:50:00,40.7,19.8,23.16,SW,225,0.9,1.1,43,0.00,,,0.00,WUHU216HW,2013-03-17 00:50:00,
2013-03-16 18:55:00,40.7,19.8,23.16,SW,225,0.2,1.1,43,0.00,,,0.00,WUHU216HW,2013-03-17 00:55:00,
2013-03-16 19:00:00,40.3,20.0,23.16,West,270,0.4,0.4,44,0.00,,,0.00,WUHU216HW,2013-03-17 01:00:00,
2013-03-16 19:06:00,40.1,20.3,23.16,West,270,0.4,0.9,45,0.00,,,0.00,WUHU216HW,2013-03-17 01:06:00,
2013-03-16 19:11:00,40.0,20.2,23.16,SW,225,0.4,0.4,45,0.00,,,0.00,WUHU216HW,2013-03-17 01:11:00,
2013-03-16 19:16:00,39.6,19.9,23.16,West,270,0.2,0.4,45,0.00,,,0.00,WUHU216HW,2013-03-17 01:16:00,
2013-03-16 19:21:00,39.4,19.7,23.16,West,270,0.0,0.4,45,0.00,,,0.00,WUHU216HW,2013-03-17 01:21:00,
2013-03-16 19:26:00,39.2,19.5,23.16,West,270,0.4,0.4,45,0.00,,,0.00,WUHU216HW,2013-03-17 01:26:00,
2013-03-16 19:32:00,38.9,19.2,23.16,West,270,0.0,0.4,45,0.00,,,0.00,WUHU216HW,2013-03-17 01:32:00,
2013-03-16 19:37:00,38.7,19.1,23.16,West,270,0.2,0.2,45,0.00,,,0.00,WUHU216HW,2013-03-17 01:37:00,
2013-03-16 19:42:00,38.5,18.9,23.16,West,270,0.4,0.4,45,0.00,,,0.00,WUHU216HW,2013-03-17 01:42:00,
2013-03-16 19:47:00,38.3,19.3,23.15,West,270,0.7,1.6,46,0.00,,,0.00,WUHU216HW,2013-03-17 01:47:00,
2013-03-16 19:52:00,38.0,19.4,23.15,WSW,248,1.1,1.6,47,0.00,,,0.00,WUHU216HW,2013-03-17 01:52:00,
2013-03-16 19:57:00,37.8,20.4,23.15,WSW,248,1.8,1.8,49,0.00,,,0.00,WUHU216HW,2013-03-17 01:57:00,
2013-03-16 20:02:00,37.3,20.3,23.15,WSW,248,1.6,1.8,50,0.00,,,0.00,WUHU216HW,2013-03-17 02:02:00,
2013-03-16 20:07:00,36.9,20.1,23.15,WSW,248,1.6,1.8,50,0.00,,,0.00,WUHU216HW,2013-03-17 02:07:00,
2013-03-16 20:12:00,36.5,19.2,23.14,West,270,1.8,1.8,49,0.00,,,0.00,WUHU216HW,2013-03-17 02:12:00,
2013-03-16 20:17:00,36.4,19.5,23.14,WSW,248,2.0,2.5,50,0.00,,,0.00,WUHU216HW,2013-03-17 02:17:00,
2013-03-16 20:22:00,36.0,19.3,23.14,WSW,248,2.0,2.5,50,0.00,,,0.00,WUHU216HW,2013-03-17 02:22:00,
2013-03-16 20:28:00,36.0,18.2,23.13,West,270,1.3,2.0,48,0.00,,,0.00,WUHU216HW,2013-03-17 02:28:00,
2013-03-16 20:33:00,36.0,18.2,23.14,WSW,248,0.7,1.8,48,0.00,,,0.00,WUHU216HW,2013-03-17 02:33:00,
2013-03-16 20:38:00,35.8,17.5,23.13,WSW,248,1.3,2.5,47,0.00,,,0.00,WUHU216HW,2013-03-17 02:38:00,
2013-03-16 20:43:00,35.8,17.5,23.13,SW,225,1.8,2.5,47,0.00,,,0.00,WUHU216HW,2013-03-17 02:43:00,
2013-03-16 21:00:00,35.6,17.4,23.13,WSW,248,0.2,0.2,47,0.00,,,0.00,WUHU216HW,2013-03-17 03:00:00,
2013-03-16 21:05:00,35.6,16.8,23.13,West,270,0.7,0.7,46,0.00,,,0.00,WUHU216HW,2013-03-17 03:05:00,
2013-03-16 21:10:00,35.6,16.8,23.13,West,270,1.1,1.8,46,0.00,,,0.00,WUHU216HW,2013-03-17 03:10:00,
2013-03-16 21:15:00,35.6,16.8,23.12,West,270,0.4,1.8,46,0.00,,,0.00,WUHU216HW,2013-03-17 03:15:00,
2013-03-16 21:20:00,35.6,16.3,23.12,West,270,0.4,1.8,45,0.00,,,0.00,WUHU216HW,2013-03-17 03:20:00,
2013-03-16 21:25:00,35.6,16.3,23.12,WSW,248,0.7,1.1,45,0.00,,,0.00,WUHU216HW,2013-03-17 03:25:00,
2013-03-16 21:30:00,35.6,16.3,23.12,WSW,248,0.4,1.1,45,0.00,,,0.00,WUHU216HW,2013-03-17 03:30:00,
2013-03-16 21:35:00,35.6,16.3,23.11,WSW,248,0.4,1.1,45,0.00,,,0.00,WUHU216HW,2013-03-17 03:35:00,
2013-03-16 21:40:00,35.6,16.3,23.11,West,270,0.9,1.1,45,0.00,,,0.00,WUHU216HW,2013-03-17 03:40:00,
2013-03-16 21:45:00,35.6,15.8,23.11,WSW,248,1.3,1.6,44,0.00,,,0.00,WUHU216HW,2013-03-17 03:45:00,
2013-03-16 21:50:00,35.6,14.8,23.11,WSW,248,0.7,1.8,42,0.00,,,0.00,WUHU216HW,2013-03-17 03:50:00,
2013-03-16 21:55:00,35.6,14.8,23.11,West,270,1.1,1.8,42,0.00,,,0.00,WUHU216HW,2013-03-17 03:55:00,
2013-03-16 22:00:00,35.8,15.4,23.11,WSW,248,1.1,1.1,43,0.00,,,0.00,WUHU216HW,2013-03-17 04:00:00,
2013-03-16 22:04:00,35.6,15.2,23.11,WSW,248,1.3,1.3,43,0.00,,,0.00,WUHU216HW,2013-03-17 04:04:00,
2013-03-16 22:09:00,35.6,15.8,23.11,WSW,248,0.0,1.3,44,0.00,,,0.00,WUHU216HW,2013-03-17 04:09:00,
2013-03-16 22:14:00,35.6,15.8,23.11,WSW,248,0.0,1.1,44,0.00,,,0.00,WUHU216HW,2013-03-17 04:14:00,
2013-03-16 22:19:00,35.5,16.1,23.11,West,270,0.9,1.6,45,0.00,,,0.00,WUHU216HW,2013-03-17 04:19:00,
2013-03-16 22:24:00,35.5,16.1,23.11,West,270,0.7,1.6,45,0.00,,,0.00,WUHU216HW,2013-03-17 04:24:00,
2013-03-16 22:29:00,35.5,16.1,23.11,West,270,0.7,0.9,45,0.00,,,0.00,WUHU216HW,2013-03-17 04:29:00,
2013-03-16 22:34:00,35.5,16.1,23.11,West,270,0.7,0.7,45,0.00,,,0.00,WUHU216HW,2013-03-17 04:34:00,
2013-03-16 22:55:00,35.5,16.7,23.09,WSW,248,1.1,1.1,46,0.00,,,0.00,WUHU216HW,2013-03-17 04:55:00,
2013-03-16 23:00:00,35.5,16.7,23.09,West,270,0.4,1.1,46,0.00,,,0.00,WUHU216HW,2013-03-17 05:00:00,
2013-03-16 23:05:00,35.3,16.5,23.09,West,270,0.0,1.1,46,0.00,,,0.00,WUHU216HW,2013-03-17 05:05:00,
2013-03-16 23:10:00,35.3,17.0,23.09,WNW,293,0.4,1.6,47,0.00,,,0.00,WUHU216HW,2013-03-17 05:10:00,
2013-03-16 23:15:00,35.3,17.0,23.09,WSW,248,0.4,1.8,47,0.00,,,0.00,WUHU216HW,2013-03-17 05:15:00,
2013-03-16 23:20:00,35.1,16.3,23.08,West,270,0.4,1.8,46,0.00,,,0.00,WUHU216HW,2013-03-17 05:20:00,
2013-03-16 23:25:00,35.3,17.0,23.08,WSW,248,0.7,0.7,47,0.00,,,0.00,WUHU216HW,2013-03-17 05:25:00,
2013-03-16 23:30:00,34.9,16.7,23.08,WSW,248,0.2,1.6,47,0.00,,,0.00,WUHU216HW,2013-03-17 05:30:00,
2013-03-16 23:35:00,34.6,17.8,23.08,West,270,1.8,1.8,50,0.00,,,0.00,WUHU216HW,2013-03-17 05:35:00,
2013-03-16 23:41:00,34.4,16.7,23.08,WNW,293,0.4,1.8,48,0.00,,,0.00,WUHU216HW,2013-03-17 05:41:00,
2013-03-16 23:46:00,34.2,16.9,23.08,WSW,248,0.7,2.2,49,0.00,,,0.00,WUHU216HW,2013-03-17 05:46:00,
2013-03-16 23:51:00,34.2,17.5,23.07,West,270,1.6,2.2,50,0.00,,,0.00,WUHU216HW,2013-03-17 05:51:00,
2013-03-16 23:56:00,33.8,17.1,23.06,SW,225,1.3,1.8,50,0.00,,,0.00,WUHU216HW,2013-03-17 05:56:00,